Regional Weather Roundup
Issued by NWS Upton, NY

Home | Current Version | Previous Version | Text Only | Print | Product List | Glossary On
Versions: 1 2 3 4 5 6 7 8 9 10 11 12 13 14 15 16 17 18 19 20 21 22 23 24 25 26 27 28 29 30 31 32 33 34 35 36 37 38 39 40 41 42 43 44 45 46 47 48 49 50
000
ASUS41 KOKX 310105
RWROKX

REGIONAL WEATHER ROUNDUP
NATIONAL WEATHER SERVICE NEW YORK NY
800 PM EST FRI JAN 30 2015

NOTE: "FAIR" INDICATES FEW OR NO CLOUDS BELOW 12,000 FEET WITH NO
SIGNIFICANT WEATHER AND/OR OBSTRUCTIONS TO VISIBILITY.

NYZ071-072-176-178-NJZ106-104-310200-
NEW YORK CITY METRO AREA


CITY           SKY/WX    TMP DP  RH WIND       PRES   REMARKS
CENTRAL PARK   CLEAR     25   8  48 NW14G30   30.02R WCI  13
LAGUARDIA APRT PTCLDY    25  12  58 NW32      29.97R WCI   8
KENNEDY INTL   PTCLDY    26   9  48 NW31G43   29.97R WCI   9
NEWARK/LIBERTY PTCLDY    23   9  55 NW21G31   30.01R WCI   8
BRNX BOT. GARD   N/A    N/A N/A N/A NW14      29.98R
TETERBORO      CLEAR     23   8  52 NW23G31   29.99R WCI   7
$$

NYZ177-179-078>081-310200-
LONG ISLAND NEW YORK

CITY           SKY/WX    TMP DP  RH WIND       PRES   REMARKS
FARMINGDALE    FAIR      27  11  51 NW15G31   29.92R WCI  15
ISLIP          PTCLDY    29  13  51 NW20G28   29.87R WCI  16
SHIRLEY        CLOUDY    30  16  56 NW13G28   29.89R WCI  20
WESTHAMPTON    PTCLDY    29  14  53 NW20G32   29.87R WCI  16
MONTAUK POINT    N/A     31  19  61 NW17G29   29.82R WCI  19
$$

NYZ052-065-067-310200-
HUDSON VALLEY

CITY           SKY/WX    TMP DP  RH WIND       PRES   REMARKS
WHITE PLAINS   CLEAR     23   9  55 NW24G36   29.91R WCI   7
NEWBURGH       CLEAR     19  10  68 NW23G32   29.97R WCI   2
MONTGOMERY     PTCLDY    19   4  51 N13G25    29.99R WCI   6
POUGHKEEPSIE   CLEAR     23   6  48 NW16G30   29.98R WCI  10
ALBANY         PTCLDY    14   3  61 NW18G30   30.04R WCI  -3
$$

NJZ001-105-106-008-010-013-015-019>022-104-310200-
NEW JERSEY

CITY           SKY/WX    TMP DP  RH WIND       PRES   REMARKS
NEWARK/LIBERTY PTCLDY    23   9  55 NW21G31   30.01R WCI   8
TETERBORO      CLEAR     23   8  52 NW23G31   29.99R WCI   7
CALDWELL       CLEAR     21   6  52 NW15G31   30.02R WCI   8
MORRISTOWN     CLEAR     21   7  53 NW12G32   30.03R WCI   9
SOMERVILLE     CLEAR     22   6  50 NW22G35   30.04R WCI   6
SUSSEX         MOCLDY    19   4  51 N7        30.03R WCI  10
ANDOVER          N/A     18   3  52 NW8G21    30.05R WCI   8
TRENTON        CLEAR     25   9  50 N20G28    30.03R WCI  11
MILLVILLE      CLEAR     29  12  49 NW23G37   30.05R WCI  15
ATLANTIC CITY  MOCLDY    31  17  56 NW26G39   30.00R WCI  17
WRIGHTSTOWN    CLEAR     27  12  54 NW21G26   30.00R WCI  13
TOMS RIVER     CLEAR     28  10  47 NW17G26   30.00R WCI  16
BELMAR         PTCLDY    27   9  46 NW26G35   29.98R WCI  11
$$

PAZ047>061-062-071-310200-
EASTERN PENNSYLVANIA

CITY           SKY/WX    TMP DP  RH WIND       PRES   REMARKS
PHILADELPHIA   MOCLDY    30  11  45 NW26G37   30.08R WCI  16
ALLENTOWN      CLOUDY    21   7  54 NW17G28   30.09R WCI   7
SCRANTON       FLURRIES  16   6  65 N10       30.11R WCI   4
$$

CTZ002-004>006-009-010-012-RIZ004-006-007-MAZ004-011-015-310200-
SOUTHERN NEW ENGLAND
 IN CT

CITY           SKY/WX    TMP DP  RH WIND       PRES   REMARKS
BRADLEY INTL   PTCLDY    22  10  60 NW23G29   29.87R WCI   6
HARTFORD       MOCLDY    24  11  57 NW21G30   29.89R WCI   9
DANBURY        CLEAR     23   8  52 NW13G22   29.91R WCI  11
WTRBRY/OXFORD  CLEAR     19   3  49 NW17G30   29.86R WCI   4
BRIDGEPORT     CLEAR     27  12  53 NW12G28   29.88R WCI  17
MERIDEN        CLEAR     23   9  55 NW18G28   29.88R WCI   9
NEW HAVEN      CLEAR     26  11  52 N14G26    29.88R WCI  14
CHESTER        FAIR      27  14  59 NW18G32   29.83R WCI  13
GROTON         CLEAR     27  16  63 NW18G30   29.81R WCI  14
WILLIMANTIC    CLOUDY    27  15  61 W20G28    29.83R WCI  13

 IN RI

CITY           SKY/WX    TMP DP  RH WIND       PRES   REMARKS
PROVIDENCE     PTCLDY    30  17  58 NW20G26   29.76R WCI  17
BLOCK ISLAND   CLOUDY    30  18  59 NW16G32   29.76R WCI  19
WESTERLY       PTCLDY    29  17  61 NW15G25   29.80R WCI  18

 IN MA

CITY           SKY/WX    TMP DP  RH WIND       PRES   REMARKS
BOSTON         FLURRIES  29  20  69 NW18G31   29.74R WCI  16
WORCESTER      MIX PCPN  21  13  71 NW25G43   29.72F WCI   4
WESTFIELD      CLEAR     22  10  60 NW15G29   29.86R WCI   9
PROVINCETOWN   NOT AVBL
NANTUCKET      CLOUDY    33  27  78 NW22      29.66F WCI  21
$$

ANZ330-335-338-340-345-350-353-355-310200-
COASTAL MARINE OBSERVATIONS


STATION/POSITION TIME  SKY/WX   TEMP    WIND        PRES    VSBY  WAVE
                                AIR SEA DIR/SP/G                  HT/PER
                 (UTC)          (F)     (DEG/KT/KT) (MB)    (MI)  (FT/S)
NY HARB ENTRANCE 0100            30 40  300/ 33/ 39 1012.7          6/ 5
4S FIRE IS       0100               38                N/A           4/ 4
20S FIRE ISLAND  0000               41              1011.1          6/ 6
23SW MTP         0100                                 N/A           6/ 5
HUDSON CANYON    NOT AVBL
EXECUTION ROCKS  0100            27 33  290/ 25/ 35   N/A
WESTERN LI SOUND 0100            28     300/ 23/ 31   N/A           3/ 3
CENTRAL LI SOUND 0000            30 35  320/ 25/ 31   N/A           3/ 4
EASTERN LI SOUND NOT AVBL
ROBBINS REEF     0100            26     330/ 24/ 29 1014.2
$$


>>>>>>>>>>>>>>>>>>>>>>>>>>>> KEY <<<<<<<<<<<<<<<<<<<<<<<<<<<
>                                                          <
>     SKY/WX - SKY CONDITION/PRESENT WEATHER               <
>     TMP    - TEMPERATURE IN FAHRENHEIT                   <
>     DP     - DEWPOINT IN FAHRENHEIT                      <
>     RH     - RELATIVE HUMIDITY IN PERCENT                <
>     WIND   - DIRECTION AND SPEED IN MPH                  <
>     PRES   - MEAN SEA LEVEL PRESSURE IN INCHES OF HG     <
>     WCI    - WIND CHILL INDEX                            <
>     VSB    - VISIBILITY IN MILES                         <
>     HX     - HEAT INDEX                                  <
>     TC     - TEMPERATURE IN CELSIUS                      <
>     VRB    - VARIABLE WIND DIRECTION                     <
>                                                          <
>>>>>>>>>>>>>>>>>>>>>>>>>>>> KEY <<<<<<<<<<<<<<<<<<<<<<<<<<<




USA.gov is the U.S. government's official web portal to all federal, state and local government web resources and services.